Back to catalog

STARLINK-11671

AliveCommunicationsVLEO
NORAD 64319·PAYLOAD·🇺🇸 United States

Launched Jun 10, 2025 from Cape Canaveral Space Force Station

Loading…

Next Passes (next 24 hours)

TLE

FreshSource: CelesTrak SupGP

Epoch: Sep 14, 2026, 21:03 UTC

1 64319C 25124C   26257.87756944 -.00070509  00000+0 -54748-3 0  2579
2 64319  43.0001 328.6956 0001594 265.5574 341.5135 15.70880507    19

Track STARLINK-11671 in real time with AllMySat

Download on the App Store